Location: Lugrin
(46.4033°N, 6.6674°E)
Time: 00:21:07
(UTC+00:00)

Cosmos 1937 Rocket - Pass Details

Date: 18 September 2020
Orbit: 747 x 780 km, 74.0° (Epoch: 31 October)

Event Time Altitude Azimuth Distance (km) Brightness Sun altitude
Rises 18:53:18 0° 208° (SSW) 3,234 6.9 -13.6°
Reaches altitude 10° 18:55:41 10° 211° (SSW) 2,307 6.1 -14.0°
Maximum altitude 19:00:54 67° 294° (WNW) 830 3.9 -14.8°
Drops below altitude 10° 19:06:06 10° 17° (NNE) 2,301 6.0 -15.7°
Sets 19:08:30 0° 20° (NNE) 3,226 6.7 -16.0°
